Wind_Speed
20 21 21 21 21 22 23 24 24 24 24 24 25 26 26 28 29 29 30 30 29 29 30 30 31 31 32 32 33 33 34 35 35 36 36 38 39 39 39 41 42 42 42 43
19 20 20 20 20 22 23 23 24 24 25 25 25 26 27 28 29 29 30 30 30 29 29 30 30 30 30 31 32 32 33 34 35 36 36 36 37 37 37 38 39 39 39 40
19 19 19 19 20 21 22 23 23 23 24 24 25 26 26 27 28 29 30 29 29 27 27 27 28 28 29 30 31 32 32 33 33 34 34 35 35 35 35 35 36 36 37 37
20 20 20 19 19 20 21 21 22 22 23 24 25 25 26 27 28 28 28 28 28 27 27 25 26 27 29 30 30 31 31 31 31 31 31 32 32 33 33 34 34 34 35 36
19 20 20 19 20 20 21 21 22 23 23 24 24 25 26 26 27 27 27 27 27 27 27 26 26 27 27 29 29 29 29 30 30 30 30 30 30 30 30 30 31 32 33 34
20 20 20 20 20 20 22 22 22 23 24 24 24 25 25 26 26 26 27 27 27 26 26 25 25 25 25 26 27 28 28 29 29 29 30 29 29 29 28 28 29 30 31 32
19 19 20 20 21 21 21 21 22 23 23 23 24 25 25 25 25 25 26 26 26 26 26 26 25 25 25 24 25 26 27 28 29 29 29 29 28 28 27 27 28 28 29 29
19 19 19 19 20 21 21 22 22 23 23 24 24 24 25 25 24 25 25 26 26 25 26 25 25 25 24 24 24 25 25 26 26 27 27 27 26 26 26 26 27 27 27 28
19 19 19 20 20 21 22 22 23 23 23 24 24 24 24 24 25 25 26 26 25 25 25 24 24 24 24 24 25 24 24 23 23 23 22 22 21 21 21 22 23 24 24 25
20 20 20 21 21 21 22 22 23 23 23 23 23 23 24 24 25 25 25 25 24 25 24 24 23 23 24 25 24 24 23 22 21 20 19 19 19 18 19 19 20 21 22 23
21 20 20 20 21 21 22 22 22 22 22 23 23 23 24 24 24 24 24 24 24 24 24 23 23 22 22 22 22 22 21 20 19 19 19 18 18 19 19 19 19 19 19 20
21 20 21 21 21 22 22 22 22 22 22 23 23 23 23 23 23 24 24 24 23 23 23 22 22 21 21 21 21 21 20 20 19 19 18 18 18 18 18 18 18 18 18 19
20 20 21 21 21 22 23 23 23 23 23 23 23 23 22 22 23 23 23 23 22 22 22 22 22 21 21 20 20 19 19 19 19 19 18 18 18 18 18 17 17 17 17 17
20 20 21 21 22 23 23 23 24 24 24 23 23 23 22 22 22 21 21 21 21 21 21 21 20 20 20 19 18 18 17 17 17 17 17 17 16 16 16 15 15 15 15 15
20 21 22 22 22 23 23 23 24 23 23 23 22 22 22 22 21 20 20 21 20 20 19 18 18 17 17 17 16 16 16 16 15 16 15 15 15 15 14 14 13 13 13 13
21 22 22 22 22 22 23 23 22 22 22 21 21 21 21 21 20 20 20 20 20 19 18 17 17 16 16 15 15 15 15 15 15 15 15 15 14 14 13 13 12 12 13 13
21 21 21 21 22 22 22 22 22 21 21 21 21 21 20 19 19 20 19 19 19 18 17 16 16 16 15 15 15 15 15 14 14 14 14 14 13 13 12 12 12 12 13 13
21 21 21 21 21 21 21 22 22 21 21 21 20 19 19 19 19 19 18 18 17 17 16 16 15 15 15 15 14 14 14 14 13 13 13 13 13 13 13 12 12 13 13 13
19 20 20 21 21 21 21 21 21 21 21 20 19 19 19 18 18 17 17 16 16 16 16 15 15 15 15 14 13 14 14 14 14 14 14 14 13 13 13 13 13 13 13 13
19 19 20 21 21 21 21 21 21 21 20 19 18 18 18 17 16 16 15 15 15 14 14 14 14 14 13 13 13 13 13 13 13 14 14 13 13 13 13 13 13 13 13 13
19 20 20 21 21 20 20 20 20 19 19 18 18 17 17 16 15 15 14 14 13 13 13 13 12 12 12 12 12 13 13 13 13 13 13 12 12 12 12 12 12 13 13 13
19 20 20 20 20 20 20 19 18 18 17 17 16 16 15 14 14 14 13 13 13 12 12 12 12 11 11 11 11 12 12 12 12 12 11 11 11 11 11 12 12 13 13 13
19 20 20 20 20 19 19 18 17 16 16 16 15 14 13 13 13 13 12 12 12 12 11 11 10 10 10 11 11 11 11 11 11 10 10 11 11 11 12 12 13 13 13 12
19 20 20 20 19 18 17 17 16 15 16 15 14 13 13 12 12 11 11 11 11 11 10 10 9 10 10 10 10 10 10 10 10 10 10 10 11 11 12 12 12 12 13 13
18 19 19 18 18 18 17 16 16 16 15 15 14 13 13 12 12 11 11 11 11 10 10 9 9 9 9 9 9 9 9 10 10 10 10 11 11 11 12 12 12 12 12 12
18 19 19 18 18 17 17 16 16 16 15 14 13 13 12 12 12 12 11 11 11 10 9 9 9 9 8 8 9 9 10 10 10 11 11 12 12 11 11 11 11 11 11 11
18 19 19 18 18 17 16 16 16 15 14 14 13 12 12 12 12 12 12 11 11 10 9 9 9 9 9 9 9 10 10 10 11 11 12 12 11 10 10 10 10 10 10 10
Wind_Direction
278 278 277 276 275 274 276 279 280 280 281 282 281 282 282 284 286 288 287 287 285 284 282 280 280 278 276 274 273 274 273 271 271 270 269 266 264 264 265 264 264 264 263 263
278 278 277 276 277 277 278 280 280 280 281 283 283 283 284 286 287 289 291 290 289 286 284 281 279 277 275 274 274 275 274 272 271 271 270 267 265 267 266 265 264 262 262 262
277 276 274 279 282 281 281 281 281 281 281 281 282 285 287 286 288 290 291 292 291 288 285 282 279 276 275 275 275 276 276 274 273 270 269 268 267 267 266 265 263 261 262 262
277 276 277 282 283 283 284 283 282 282 283 283 284 286 288 288 289 291 292 291 290 288 285 282 281 280 278 277 276 277 277 275 273 271 271 270 268 267 266 266 264 262 262 262
279 278 278 281 283 285 286 285 283 284 285 285 287 287 289 291 291 290 291 292 291 289 286 284 282 281 281 279 278 278 277 275 272 271 272 270 269 268 266 265 265 264 265 264
281 281 281 282 284 287 289 288 287 287 286 285 286 288 289 290 290 288 290 292 293 292 289 287 285 283 282 282 280 279 277 274 272 271 271 270 270 270 268 267 268 268 267 265
283 284 285 284 286 288 289 291 290 289 288 288 288 288 289 290 289 289 290 291 291 290 289 288 287 286 285 284 282 281 279 275 273 273 272 270 269 269 268 268 268 269 268 266
284 286 288 288 288 290 293 293 293 292 291 291 290 288 287 287 288 289 291 291 291 289 289 288 287 286 285 285 285 284 283 281 278 277 275 273 269 267 267 267 268 269 268 267
285 287 288 289 292 294 295 295 294 294 294 292 291 289 288 287 288 290 291 291 289 290 289 287 286 286 285 286 286 286 285 285 283 280 278 275 273 270 269 269 270 270 270 269
285 287 287 289 292 294 296 296 295 295 295 296 295 291 289 289 290 292 292 292 290 289 289 288 287 287 286 286 286 285 285 285 282 279 276 276 276 276 277 276 275 274 273 271
285 286 287 289 292 293 295 296 297 297 297 297 295 294 293 291 292 293 294 292 290 289 288 287 288 288 288 287 286 285 284 283 280 278 278 277 277 279 280 279 279 278 276 274
284 286 288 290 291 293 295 296 296 297 297 296 295 295 295 294 295 295 295 293 291 290 288 286 286 287 287 287 286 284 283 282 278 278 277 276 277 279 280 280 280 278 277 275
285 287 289 291 292 294 295 295 296 297 297 296 296 295 294 295 296 296 296 295 294 292 290 288 286 285 284 284 284 282 281 278 276 276 276 277 279 281 282 281 280 280 278 276
287 289 291 292 292 292 293 293 295 296 296 296 296 295 294 294 295 297 298 298 297 296 293 291 287 284 283 281 280 280 280 279 278 276 276 277 280 284 285 282 281 279 278 277
288 289 291 292 292 293 294 294 295 297 296 296 296 295 294 294 293 294 296 298 299 298 296 293 288 285 281 279 278 279 280 278 276 275 277 279 282 284 284 283 283 282 279 278
289 289 290 291 293 294 295 296 297 298 298 297 297 297 295 294 293 293 295 296 297 297 296 295 290 284 281 279 278 278 278 277 276 275 276 278 280 283 285 287 286 284 284 284
289 289 290 291 293 295 296 297 298 300 300 299 298 298 296 294 295 294 295 295 295 295 295 293 290 285 282 279 278 278 278 277 275 274 274 277 281 284 285 286 286 287 288 289
288 290 292 293 294 294 296 298 299 300 300 300 299 297 296 296 296 296 294 293 293 293 293 291 289 287 284 280 277 277 276 276 275 274 276 278 280 281 282 283 286 287 288 288
289 291 292 293 294 294 297 300 300 300 300 299 297 295 295 296 296 295 294 293 293 293 292 289 286 285 282 280 278 277 275 276 277 277 277 278 278 277 279 282 284 285 286 287
289 291 294 295 296 297 298 299 300 300 300 298 296 295 295 296 295 295 295 295 295 294 292 289 287 285 281 280 279 278 277 276 277 278 278 278 277 276 279 281 283 284 286 287
289 291 294 297 297 298 299 299 300 300 299 298 298 296 295 294 293 292 293 293 294 294 291 288 287 285 283 282 282 281 279 279 279 279 278 278 278 278 278 281 283 284 285 285
290 292 295 297 297 297 298 299 299 299 299 299 298 296 294 294 293 292 292 292 292 292 289 286 285 283 283 285 285 285 283 281 280 280 279 280 279 278 278 280 282 283 285 285
291 293 295 298 297 296 296 296 297 297 299 300 299 297 294 293 293 293 291 291 292 292 290 287 284 284 287 287 288 288 286 284 282 281 282 282 281 280 282 283 284 283 283 283
289 291 294 297 296 295 294 293 293 295 296 297 297 296 294 294 294 293 290 290 292 293 291 287 284 286 289 289 290 290 287 285 284 284 285 285 283 283 284 284 284 283 283 282
289 290 292 294 295 294 293 291 290 292 294 293 292 291 292 292 292 290 286 288 292 293 291 287 287 290 290 291 291 290 288 287 287 288 289 290 288 287 286 286 286 287 286 283
289 290 290 291 292 291 289 288 288 290 290 289 289 289 290 289 288 287 285 285 286 287 287 287 289 292 291 290 291 292 290 288 288 290 292 292 291 289 289 288 289 292 291 287
290 290 289 289 289 288 286 285 286 287 286 285 284 285 287 288 287 285 283 281 279 279 281 284 285 288 289 288 291 293 293 292 293 293 293 292 289 287 286 286 288 292 290 285
Height
5614 5614 5613 5613 5613 5612 5610 5609 5608 5608 5606 5605 5603 5601 5599 5596 5594 5592 5589 5586 5583 5580 5578 5576 5574 5573 5572 5571 5569 5568 5567 5566 5565 5563 5563 5562 5562 5563 5564 5565 5565 5566 5567 5568
5609 5608 5607 5607 5606 5605 5604 5603 5601 5600 5599 5598 5595 5593 5591 5589 5586 5583 5580 5577 5574 5571 5569 5567 5565 5564 5563 5561 5560 5558 5557 5556 5555 5553 5552 5552 5552 5552 5553 5553 5554 5555 5555 5556
5603 5602 5601 5601 5600 5599 5597 5596 5595 5593 5593 5590 5588 5586 5584 5581 5578 5575 5572 5569 5566 5563 5561 5559 5557 5555 5554 5553 5551 5550 5548 5547 5545 5544 5543 5542 5542 5542 5542 5543 5544 5544 5545 5546
5596 5596 5595 5597 5594 5592 5591 5589 5588 5586 5585 5583 5582 5579 5576 5574 5571 5568 5565 5562 5559 5556 5553 5551 5548 5547 5545 5544 5542 5541 5539 5538 5536 5535 5534 5533 5532 5532 5533 5533 5534 5535 5535 5535
5590 5589 5589 5590 5588 5586 5584 5583 5581 5580 5578 5576 5574 5572 5570 5567 5564 5561 5558 5555 5552 5549 5546 5543 5541 5539 5537 5535 5534 5532 5531 5529 5528 5527 5526 5524 5524 5524 5524 5524 5525 5525 5526 5526
5584 5583 5582 5584 5582 5579 5579 5577 5575 5573 5571 5569 5567 5566 5564 5560 5556 5554 5551 5547 5545 5542 5539 5536 5534 5531 5529 5527 5526 5524 5523 5521 5520 5519 5518 5516 5516 5516 5515 5516 5516 5516 5516 5516
5579 5577 5576 5577 5575 5574 5573 5572 5569 5566 5564 5561 5559 5558 5556 5552 5549 5546 5544 5541 5538 5535 5532 5529 5526 5524 5521 5520 5518 5516 5515 5513 5512 5511 5509 5508 5507 5507 5507 5507 5507 5507 5507 5507
5573 5571 5573 5570 5569 5568 5566 5564 5561 5559 5556 5554 5552 5550 5547 5545 5542 5539 5536 5534 5531 5528 5525 5522 5519 5516 5515 5513 5511 5509 5507 5506 5504 5503 5502 5500 5500 5499 5499 5499 5499 5498 5498 5498
5568 5568 5566 5564 5562 5561 5559 5556 5554 5552 5550 5547 5545 5543 5540 5537 5535 5532 5529 5527 5524 5521 5518 5515 5512 5510 5508 5506 5504 5502 5500 5499 5497 5496 5495 5494 5493 5492 5491 5491 5491 5491 5490 5490
5561 5560 5559 5557 5556 5554 5552 5550 5547 5545 5543 5540 5537 5535 5533 5530 5528 5525 5522 5519 5516 5514 5511 5508 5506 5503 5501 5499 5497 5495 5494 5492 5491 5490 5489 5488 5487 5486 5485 5485 5484 5484 5483 5483
5554 5554 5553 5551 5549 5547 5545 5543 5540 5538 5535 5533 5530 5528 5525 5523 5521 5518 5515 5512 5509 5507 5504 5502 5499 5496 5494 5492 5490 5489 5488 5486 5485 5484 5483 5483 5481 5480 5479 5479 5478 5477 5477 5477
5548 5548 5546 5545 5543 5541 5539 5536 5534 5531 5529 5526 5523 5521 5518 5516 5513 5511 5508 5505 5502 5500 5497 5495 5492 5490 5488 5486 5484 5483 5482 5481 5480 5479 5478 5477 5476 5475 5473 5472 5472 5471 5470 5470
5541 5540 5539 5537 5536 5534 5532 5529 5527 5524 5522 5519 5517 5514 5511 5509 5506 5504 5501 5498 5496 5493 5491 5488 5486 5484 5482 5480 5478 5477 5476 5475 5474 5473 5472 5472 5471 5470 5468 5467 5466 5465 5464 5464
5534 5533 5532 5530 5529 5527 5524 5522 5520 5517 5514 5512 5509 5507 5504 5502 5500 5497 5495 5492 5489 5486 5484 5481 5479 5477 5476 5474 5473 5472 5470 5469 5469 5468 5467 5466 5465 5464 5463 5462 5461 5460 5460 5459
5528 5526 5525 5523 5521 5519 5517 5515 5512 5510 5507 5504 5502 5500 5497 5495 5493 5490 5488 5486 5483 5480 5478 5475 5473 5472 5470 5469 5467 5466 5465 5464 5464 5463 5462 5461 5460 5459 5458 5457 5457 5456 5455 5455
5521 5519 5517 5516 5514 5512 5510 5507 5505 5503 5500 5497 5495 5493 5490 5488 5486 5484 5481 5479 5477 5475 5472 5470 5468 5466 5465 5464 5462 5461 5461 5460 5459 5458 5458 5457 5456 5455 5454 5453 5453 5452 5451 5450
5514 5512 5511 5509 5507 5505 5503 5500 5498 5496 5493 5491 5488 5486 5484 5482 5480 5477 5475 5473 5471 5469 5467 5465 5463 5461 5460 5459 5458 5457 5456 5455 5455 5454 5454 5453 5452 5451 5450 5449 5449 5448 5447 5446
5506 5505 5503 5502 5500 5498 5496 5494 5491 5489 5486 5484 5482 5479 5477 5475 5473 5471 5469 5467 5465 5463 5461 5460 5458 5456 5455 5454 5453 5452 5452 5451 5450 5450 5449 5449 5448 5447 5446 5446 5445 5444 5443 5442
5499 5498 5496 5495 5493 5491 5489 5487 5485 5482 5480 5477 5475 5473 5471 5469 5467 5465 5463 5461 5459 5458 5456 5454 5453 5451 5450 5449 5448 5448 5447 5447 5446 5446 5445 5445 5444 5443 5443 5442 5441 5440 5439 5438
5492 5491 5489 5488 5486 5484 5482 5480 5478 5476 5473 5471 5469 5467 5465 5464 5462 5460 5458 5456 5454 5452 5451 5449 5448 5447 5446 5445 5444 5443 5443 5442 5442 5442 5441 5440 5440 5439 5439 5438 5437 5436 5435 5433
5485 5484 5483 5481 5479 5478 5476 5474 5471 5469 5467 5465 5463 5461 5460 5458 5456 5455 5453 5451 5450 5448 5446 5445 5443 5442 5441 5441 5440 5439 5439 5438 5438 5437 5437 5436 5436 5435 5434 5434 5433 5432 5431 5429
5479 5477 5476 5474 5473 5471 5469 5467 5465 5463 5461 5459 5458 5456 5454 5453 5451 5450 5448 5447 5445 5444 5442 5441 5439 5438 5437 5437 5436 5435 5435 5434 5434 5433 5433 5432 5432 5431 5430 5430 5429 5428 5427 5425
5472 5471 5469 5468 5466 5464 5463 5461 5459 5458 5456 5454 5452 5451 5449 5448 5447 5445 5444 5443 5441 5440 5438 5437 5436 5435 5434 5433 5433 5432 5431 5431 5430 5429 5429 5428 5428 5427 5426 5426 5425 5424 5423 5422
5465 5464 5463 5461 5460 5458 5457 5455 5454 5452 5451 5449 5448 5446 5445 5444 5442 5441 5440 5439 5437 5436 5435 5434 5433 5432 5431 5430 5429 5429 5428 5427 5427 5426 5426 5425 5424 5423 5422 5421 5420 5419 5418 5417
5459 5458 5456 5455 5453 5452 5451 5450 5448 5447 5446 5445 5443 5442 5440 5439 5438 5437 5436 5435 5434 5432 5431 5430 5430 5429 5428 5427 5426 5426 5425 5424 5424 5423 5422 5421 5420 5419 5418 5417 5416 5415 5414 5413
5452 5451 5450 5449 5447 5446 5445 5444 5443 5442 5441 5440 5439 5437 5436 5435 5434 5433 5432 5431 5430 5429 5428 5427 5427 5426 5425 5424 5424 5423 5422 5421 5420 5419 5418 5417 5416 5415 5414 5413 5412 5411 5410 5409
5446 5445 5443 5442 5441 5440 5439 5438 5437 5437 5436 5435 5434 5433 5432 5431 5430 5429 5428 5427 5426 5425 5425 5424 5424 5423 5422 5422 5421 5420 5419 5418 5417 5416 5414 5413 5412 5411 5410 5409 5408 5407 5406 5405